ACA109 EDDH-EGLL

Flight info

Callsign ACA109
Flight time N/A
Altitude 34000
Route WSN5G WSN N125 ITMIZ DCT ABNED L980 LOGAN
Aircraft A320/M-SDE3FGHIRWY/LB1

Departure

Time 2026-05-06 15:55
Airport Hamburg Helmut Schmidt Airport (EDDH)

Arrival

Time N/A
Airport London Heathrow Airport (EGLL)
Time Latitude Longitude Altitude Speed Heading
2026-05-06 15:06 53.63449 10.00311 47 ft 0 kts 88°
2026-05-06 15:06 53.63449 10.00312 48 ft 0 kts 88°
2026-05-06 15:44 53.63449 10.00299 51 ft 4 kts 88°
2026-05-06 15:44 53.63448 10.00259 48 ft 2 kts 88°
2026-05-06 15:44 53.63451 10.00225 46 ft 4 kts 150°
2026-05-06 15:44 53.63473 10.00217 47 ft 2 kts 176°
2026-05-06 15:45 53.63460 10.00218 45 ft 4 kts 176°
2026-05-06 15:45 53.63441 10.00220 46 ft 0 kts 176°
2026-05-06 15:47 53.63435 10.00221 47 ft 6 kts 178°
2026-05-06 15:47 53.63384 10.00186 47 ft 9 kts 210°
2026-05-06 15:48 53.63285 10.00173 51 ft 19 kts 176°
2026-05-06 15:48 53.63153 10.00187 51 ft 18 kts 175°
2026-05-06 15:48 53.63061 10.00174 49 ft 12 kts 207°
2026-05-06 15:48 53.62989 10.00098 49 ft 12 kts 213°
2026-05-06 15:49 53.62927 10.00018 50 ft 10 kts 236°
2026-05-06 15:49 53.62918 9.99985 50 ft 0 kts 246°
2026-05-06 15:49 53.62917 9.99983 50 ft 1 kts 246°
2026-05-06 15:50 53.62906 9.99942 48 ft 7 kts 243°
2026-05-06 15:50 53.62894 9.99903 50 ft 0 kts 243°
2026-05-06 15:52 53.62879 9.99855 50 ft 7 kts 242°
2026-05-06 15:52 53.62864 9.99783 47 ft 6 kts 264°
2026-05-06 15:52 53.62885 9.99727 49 ft 7 kts 321°
2026-05-06 15:52 53.62895 9.99717 50 ft 0 kts 333°
2026-05-06 15:54 53.62912 9.99702 47 ft 15 kts 333°
2026-05-06 15:54 53.63249 9.99416 50 ft 89 kts 334°
2026-05-06 15:55 53.63977 9.98786 47 ft 145 kts 332°
2026-05-06 15:55 53.64977 9.97914 302 ft 169 kts 333°
2026-05-06 15:55 53.66029 9.96989 902 ft 178 kts 336°
2026-05-06 15:55 53.67139 9.95944 1543 ft 186 kts 335°
2026-05-06 15:56 53.68268 9.94845 2214 ft 188 kts 337°
2026-05-06 15:56 53.69481 9.93795 2584 ft 206 kts 340°
2026-05-06 15:56 53.70761 9.92551 3184 ft 220 kts 321°
2026-05-06 15:56 53.71493 9.90206 3802 ft 243 kts 281°
2026-05-06 15:57 53.71332 9.87237 4167 ft 269 kts 252°
2026-05-06 15:57 53.70640 9.84202 4800 ft 281 kts 248°
2026-05-06 15:57 53.69905 9.81131 5704 ft 283 kts 248°
2026-05-06 15:57 53.69157 9.78042 6593 ft 285 kts 248°
2026-05-06 15:58 53.68399 9.74926 7418 ft 288 kts 248°
2026-05-06 15:58 53.67634 9.71770 8209 ft 293 kts 248°
2026-05-06 15:58 53.66864 9.68587 9072 ft 295 kts 248°
2026-05-06 15:58 53.66086 9.65370 9944 ft 295 kts 248°
2026-05-06 15:59 53.65298 9.62107 10434 ft 311 kts 247°
2026-05-06 15:59 53.64451 9.58614 10714 ft 332 kts 246°
2026-05-06 15:59 53.63560 9.54945 11256 ft 341 kts 246°
2026-05-06 15:59 53.62667 9.51266 11982 ft 345 kts 245°
2026-05-06 16:00 53.61751 9.47504 12724 ft 347 kts 246°
2026-05-06 16:00 53.60833 9.43744 13561 ft 347 kts 245°
2026-05-06 16:00 53.59912 9.39973 14270 ft 349 kts 245°
2026-05-06 16:00 53.58988 9.36195 14970 ft 350 kts 246°
2026-05-06 16:01 53.58050 9.32367 15464 ft 357 kts 246°
2026-05-06 16:01 53.57096 9.28490 16069 ft 360 kts 245°
2026-05-06 16:01 53.56136 9.24585 16735 ft 362 kts 246°
2026-05-06 16:01 53.55171 9.20662 17407 ft 363 kts 246°
2026-05-06 16:02 53.54200 9.16730 18057 ft 365 kts 246°
2026-05-06 16:02 53.53218 9.12762 18607 ft 368 kts 246°
2026-05-06 16:02 53.52230 9.08779 19157 ft 370 kts 246°
2026-05-06 16:02 53.51237 9.04769 19712 ft 373 kts 246°
2026-05-06 16:03 53.50235 9.00735 20254 ft 375 kts 246°
2026-05-06 16:03 53.49224 8.96673 20788 ft 379 kts 246°
2026-05-06 16:03 53.48205 8.92584 21333 ft 381 kts 246°
2026-05-06 16:03 53.47176 8.88469 21878 ft 383 kts 246°
2026-05-06 16:04 53.46150 8.84381 22395 ft 386 kts 246°
2026-05-06 16:04 53.45103 8.80206 22904 ft 389 kts 246°
2026-05-06 16:04 53.44047 8.75996 23425 ft 392 kts 247°
2026-05-06 16:04 53.42987 8.71779 23886 ft 393 kts 246°
2026-05-06 16:05 53.41913 8.67525 24281 ft 397 kts 247°
2026-05-06 16:05 53.40828 8.63241 24646 ft 401 kts 246°
2026-05-06 16:05 53.39735 8.58930 25035 ft 403 kts 246°
2026-05-06 16:05 53.38636 8.54596 25416 ft 405 kts 246°
2026-05-06 16:06 53.37530 8.50243 25793 ft 408 kts 246°
2026-05-06 16:06 53.36414 8.45868 26161 ft 410 kts 246°
2026-05-06 16:06 53.35290 8.41472 26527 ft 412 kts 246°
2026-05-06 16:06 53.34159 8.37055 26887 ft 414 kts 246°
2026-05-06 16:07 53.33022 8.32615 27237 ft 416 kts 246°
2026-05-06 16:07 53.31875 8.28147 27588 ft 418 kts 246°
2026-05-06 16:07 53.30722 8.23665 27929 ft 421 kts 246°
2026-05-06 16:07 53.29564 8.19167 28297 ft 422 kts 246°
2026-05-06 16:08 53.28399 8.14646 28629 ft 424 kts 246°
2026-05-06 16:08 53.27242 8.10172 28941 ft 426 kts 246°
2026-05-06 16:08 53.26063 8.05624 29240 ft 428 kts 245°
2026-05-06 16:08 53.24874 8.01048 29542 ft 430 kts 245°
2026-05-06 16:09 53.23675 7.96455 29837 ft 432 kts 245°
2026-05-06 16:09 53.22467 7.91845 30099 ft 434 kts 245°
2026-05-06 16:09 53.21252 7.87222 30349 ft 436 kts 245°
2026-05-06 16:09 53.20035 7.82591 30606 ft 437 kts 245°
2026-05-06 16:10 53.18815 7.77950 30857 ft 437 kts 245°
2026-05-06 16:10 53.17593 7.73300 31112 ft 438 kts 245°
2026-05-06 16:10 53.16373 7.68663 31470 ft 436 kts 245°
2026-05-06 16:10 53.15158 7.64046 31875 ft 433 kts 245°
2026-05-06 16:11 53.13951 7.59476 32285 ft 430 kts 245°
2026-05-06 16:11 53.12746 7.54935 32647 ft 428 kts 245°
2026-05-06 16:11 53.11542 7.50415 32996 ft 426 kts 245°
2026-05-06 16:11 53.10342 7.45916 33316 ft 425 kts 245°
2026-05-06 16:12 53.09143 7.41423 33649 ft 424 kts 245°
2026-05-06 16:12 53.07948 7.36945 33964 ft 423 kts 245°
2026-05-06 16:12 53.06755 7.32481 34227 ft 422 kts 245°
2026-05-06 16:12 53.05561 7.28024 34469 ft 422 kts 245°
2026-05-06 16:13 53.04366 7.23570 34696 ft 421 kts 245°
2026-05-06 16:13 53.03170 7.19122 34853 ft 422 kts 245°
2026-05-06 16:13 53.00785 7.10298 34913 ft 416 kts 244°
2026-05-06 16:14 52.98422 7.01597 34907 ft 417 kts 244°
2026-05-06 16:14 52.96029 6.92822 34909 ft 417 kts 244°
2026-05-06 16:15 52.93636 6.84058 34912 ft 417 kts 244°
2026-05-06 16:15 52.91242 6.75317 34912 ft 416 kts 244°
2026-05-06 16:16 52.88828 6.66559 35121 ft 419 kts 244°
2026-05-06 16:16 52.87614 6.62170 35333 ft 419 kts 244°
2026-05-06 16:16 52.86400 6.57795 35558 ft 419 kts 244°
2026-05-06 16:17 52.85195 6.53464 35773 ft 418 kts 244°
2026-05-06 16:17 52.83973 6.49074 35895 ft 420 kts 244°
2026-05-06 16:17 52.81501 6.40195 35911 ft 429 kts 244°
2026-05-06 16:18 52.78971 6.31150 35905 ft 437 kts 244°
2026-05-06 16:18 52.76398 6.21995 35903 ft 442 kts 244°
2026-05-06 16:19 52.73795 6.12759 35905 ft 445 kts 244°
2026-05-06 16:19 52.71196 6.03547 35905 ft 445 kts 244°
2026-05-06 16:20 52.68513 5.94345 35900 ft 445 kts 237°
2026-05-06 16:20 52.66616 5.90350 35676 ft 441 kts 224°
2026-05-06 16:20 52.64192 5.87344 34703 ft 434 kts 207°
2026-05-06 16:21 52.61385 5.85646 33702 ft 429 kts 192°
2026-05-06 16:21 52.58436 5.85234 32648 ft 424 kts 178°
2026-05-06 16:21 52.55538 5.86038 31661 ft 421 kts 164°
2026-05-06 16:21 52.52877 5.87992 30704 ft 419 kts 149°
2026-05-06 16:22 52.50589 5.90940 29729 ft 417 kts 140°
2026-05-06 16:22 52.48447 5.94118 28649 ft 413 kts 140°
2026-05-06 16:22 52.46338 5.97272 27674 ft 408 kts 140°
2026-05-06 16:22 52.44257 6.00389 26772 ft 401 kts 140°
2026-05-06 16:23 52.42213 6.03447 25893 ft 395 kts 140°
2026-05-06 16:23 52.40188 6.06458 25011 ft 391 kts 140°
2026-05-06 16:23 52.38173 6.09436 24153 ft 388 kts 140°
2026-05-06 16:23 52.36184 6.12371 23545 ft 378 kts 140°
2026-05-06 16:24 52.34315 6.15128 23412 ft 355 kts 140°
2026-05-06 16:24 52.32509 6.17790 23144 ft 337 kts 140°
2026-05-06 16:24 52.30812 6.20285 22594 ft 329 kts 140°
2026-05-06 16:24 52.29124 6.22760 21974 ft 324 kts 140°
2026-05-06 16:25 52.27457 6.25202 21352 ft 320 kts 140°
2026-05-06 16:25 52.25812 6.27617 20738 ft 316 kts 140°
2026-05-06 16:25 52.24188 6.30000 20137 ft 312 kts 140°
2026-05-06 16:25 52.22579 6.32357 19678 ft 310 kts 140°
2026-05-06 16:26 52.20953 6.34732 19317 ft 323 kts 140°
2026-05-06 16:26 52.19184 6.37304 18916 ft 358 kts 140°
2026-05-06 16:26 52.17235 6.40134 18475 ft 392 kts 140°
2026-05-06 16:26 52.15147 6.43172 17985 ft 410 kts 139°
2026-05-06 16:27 52.13013 6.46283 17493 ft 413 kts 140°
2026-05-06 16:27 52.10842 6.49451 17024 ft 428 kts 139°
2026-05-06 16:27 52.08597 6.52721 16530 ft 436 kts 139°
2026-05-06 16:27 52.06341 6.56004 16042 ft 436 kts 138°
2026-05-06 16:28 52.04848 6.58169 15714 ft 435 kts 138°
2026-05-06 16:28 52.02580 6.61447 15232 ft 435 kts 138°
2026-05-06 16:28 52.00319 6.64707 14748 ft 432 kts 138°
2026-05-06 16:28 51.98082 6.67931 14262 ft 428 kts 137°
2026-05-06 16:29 51.95864 6.71124 13779 ft 424 kts 137°
2026-05-06 16:29 51.93660 6.74297 13270 ft 422 kts 137°
2026-05-06 16:29 51.91471 6.77441 12796 ft 419 kts 137°
2026-05-06 16:29 51.89329 6.80514 12324 ft 415 kts 137°
2026-05-06 16:30 51.87168 6.83608 11858 ft 413 kts 137°
2026-05-06 16:30 51.85732 6.85659 11706 ft 400 kts 137°
2026-05-06 16:30 51.83095 6.89419 11532 ft 365 kts 137°
2026-05-06 16:30 51.81255 6.92045 11409 ft 342 kts 137°
2026-05-06 16:31 51.79524 6.94517 11258 ft 321 kts 137°
2026-05-06 16:31 51.77855 6.96899 10358 ft 324 kts 136°
2026-05-06 16:31 51.76152 6.99329 9396 ft 329 kts 136°
2026-05-06 16:31 51.74438 7.01771 8951 ft 329 kts 136°
2026-05-06 16:32 51.72723 7.04206 8538 ft 328 kts 136°
2026-05-06 16:32 51.71019 7.06625 8114 ft 327 kts 136°
2026-05-06 16:32 51.69328 7.09021 7839 ft 318 kts 137°
2026-05-06 16:32 51.67700 7.11320 7576 ft 307 kts 137°
2026-05-06 16:33 51.66091 7.13589 6851 ft 305 kts 137°
2026-05-06 16:33 51.64528 7.15796 6392 ft 292 kts 137°
2026-05-06 16:33 51.63034 7.17906 5956 ft 280 kts 137°
2026-05-06 16:34 51.60165 7.21953 5162 ft 276 kts 137°
2026-05-06 16:34 51.58722 7.23987 4753 ft 275 kts 136°
2026-05-06 16:34 51.57289 7.26007 4340 ft 273 kts 137°
2026-05-06 16:34 51.55864 7.28012 3925 ft 271 kts 137°
2026-05-06 16:35 51.54443 7.30003 3552 ft 268 kts 137°
2026-05-06 16:35 51.53047 7.31956 3491 ft 267 kts 137°
2026-05-06 16:35 51.51645 7.33918 3399 ft 267 kts 137°
2026-05-06 16:35 51.50272 7.35838 3291 ft 254 kts 137°
2026-05-06 16:36 51.48973 7.37653 3191 ft 241 kts 137°
2026-05-06 16:36 51.47760 7.39438 3020 ft 231 kts 128°
2026-05-06 16:36 51.46944 7.41561 2879 ft 218 kts 108°
2026-05-06 16:36 51.46604 7.43858 2710 ft 208 kts 90°
2026-05-06 16:37 51.46709 7.46111 2502 ft 199 kts 73°
2026-05-06 16:37 51.47203 7.48115 2270 ft 191 kts 58°
2026-05-06 16:37 51.47857 7.49960 2008 ft 190 kts 58°
2026-05-06 16:37 51.48499 7.51774 1789 ft 181 kts 58°
2026-05-06 16:38 51.49091 7.53450 1501 ft 164 kts 57°
2026-05-06 16:38 51.49623 7.54958 1293 ft 152 kts 58°